Location: Hac?musa Deresi
(39.1694°N, 32.2508°E)
Time: 15:24:57
(UTC+00:00)

Timation 2 Rocket - Pass Details

Date: 22 April 2026
Orbit: 905 x 1074 km, 70.0° (Epoch: 11 May)

Event Time Altitude Azimuth Distance (km) Brightness Sun altitude
Rises 17:00:06 0° 338° (NNW) 3,673 7.7 -5.4°
Reaches altitude 10° 17:02:38 10° 341° (NNW) 2,746 7.0 -5.9°
Maximum altitude 17:09:03 68° 64° (ENE) 1,089 4.2 -7.0°
Drops below altitude 10° 17:15:41 10° 147° (SSE) 2,846 5.9 -8.2°
Enters shadow 17:17:32 - 149° (SSE) 3,518 6.4 -8.5°
